346P/Catalina (2017)

Japanese version
Home page
Updated on January 17, 2017

---------------------------------------------------------------------

* Profile

Designation 346P/2016 R1
Recovery Date September 1, 2016
Magnitude 20.0 mag
Recoverer K. Sarneczky and P. Szekely (Piszkesteto Station of Konkoly Observatory)

* Pictures

* Orbital Elements

Epoch 2017 Feb. 16.0 TT = JDT 2457800.5
T 2017 Feb. 15.51004 TT                                 MPCW
q   2.2208385            (2000.0)            P               Q
n   0.10407774     Peri.  335.90227     +0.17129120     -0.91367392
a   4.4760762      Node   102.51438     +0.95410818     +0.06055981
e   0.5038426      Incl.   22.18270     +0.24563570     +0.40191104
P   9.47
From 291 observations 1998 Jan. 29-2016 Oct. 7, mean residual 0".6.

* Finding Charts

* Magnitudes Graph

        m1 = 14.0 + 5 log d + 10.0 log r

        * Gray curve is:  m1 = 12.0 + 5 log d + 10.0 log r

---------------------------------------------------------------------

The orbital elements are published on M.P.E.C. 2016-U66.
The charts are made with StellaNavigator Ver.8 (AstroArts).
The magnitudes graphs are made with Comet for Windows.

---------------------------------------------------------------------

Copyright(C) Seiichi Yoshida (comet@aerith.net). All rights reserved.